Retour au catalogue

STARLINK-35793

ActifCommunicationsVLEO
NORAD 67179·PAYLOAD·🇺🇸 United States

Lancé Dec 17, 2025 depuis Cape Canaveral Space Force Station

Loading…

Prochains Passages (prochaines 24 heures)

TLE

FraisSource: CelesTrak SupGP

Époque: Sep 14, 2026, 21:48 UTC

1 67179C 25303S   26257.90881944 -.00019167  00000+0 -69414-3 0  2577
2 67179  43.0035 322.0389 0001480 269.6701 122.1089 15.27591950    16

Suivez STARLINK-35793 en temps réel avec AllMySat

Download on the App Store